Copper Mountain, CO

4:51 AM MST on December 13, 2017 (GMT -0700)
Copper Mountain

Weather History for KCCU - October, 2011

Change the Weather History Date:

Wednesday, October 5, 2011

  Actual Average Record
Temperature  
Mean Temperature 40 °F -  
Max Temperature 46 °F - 59 °F (2015)
Min Temperature 35 °F - 15 °F (2005)
Degree Days  
Heating Degree Days 24    
Month to date heating degree days  
Cooling Degree Days 0    
Month to date cooling degree days  
Moisture  
Dew Point 30 °F    
Average Humidity 67    
Maximum Humidity 87    
Minimum Humidity 46    
Precipitation  
Precipitation 0.05 in - 0.10 in (2015)
Sea Level Pressure  
Sea Level Pressure 30.13 in    
Wind  
Wind Speed 14 mph (South)    
Max Wind Speed 29 mph    
Max Gust Speed 33 mph    
Visibility 10 miles    
Events      
T = Trace of Precipitation, MM = Missing Value Source: NWS Daily Summary

Daily Weather History Graph

Daily Weather History Graph

Search for Another Location

Airport or City:

Trip Planner

Search our weather history database for the weather conditions in past years. The results will help you decide how hot, cold, wet, or windy it might be!

Date:

Astronomy

Oct. 05, 2011 Rise Set
Actual Time 7:04 AM MDT 6:41 PM MDT
Civil Twilight 6:37 AM MDT 7:07 PM MDT
Nautical Twilight 6:06 AM MDT 7:38 PM MDT
Astronomical Twilight 5:35 AM MDT 8:10 PM MDT
Moon 3:21 PM MDT (10/5) 12:55 AM MDT (10/5)
Length of Visible Light 12h 30m
Length of Day
11h 36m
Waxing Gibbous, 67% of the Moon is Illuminated
Oct 5
Waxing Gibbous
Oct 11
Full
Oct 19
Last Quarter
Oct 26
New
Nov 2
First Quarter

Hourly Weather History & Observations

Time (MDT) Temp. Windchill Dew Point Humidity Pressure Visibility Wind Dir Wind Speed Gust Speed Precip Events Conditions
12:07 AM 37.4 °F 28.5 °F 33.8 °F 87% 30.25 in 10.0 mi South 15.0 mph - N/A   Mostly Cloudy
12:27 AM 37.4 °F 27.2 °F 32.0 °F 81% 30.25 in 10.0 mi South 19.6 mph - N/A   Scattered Clouds
12:47 AM 37.4 °F 29.8 °F 32.0 °F 81% 30.24 in 10.0 mi SSW 11.5 mph 17.3 mph N/A   Clear
1:07 AM 37.4 °F 28.9 °F 32.0 °F 81% 30.23 in 10.0 mi South 13.8 mph 20.7 mph N/A   Clear
1:27 AM 37.4 °F 27.5 °F 32.0 °F 81% 30.22 in 10.0 mi South 18.4 mph - N/A   Clear
1:47 AM 37.4 °F 27.8 °F 33.8 °F 87% 30.23 in 10.0 mi South 17.3 mph - N/A   Scattered Clouds
2:27 AM 37.4 °F 32.1 °F 32.0 °F 81% 30.22 in 10.0 mi WSW 6.9 mph - N/A   Clear
2:47 AM 37.4 °F 33.8 °F 32.0 °F 81% 30.22 in 10.0 mi SSW 4.6 mph - N/A   Scattered Clouds
3:07 AM 37.4 °F 31.4 °F 32.0 °F 81% 30.21 in 10.0 mi West 8.1 mph - N/A   Clear
3:27 AM 37.4 °F 32.8 °F 32.0 °F 81% 30.20 in 10.0 mi WSW 5.8 mph - N/A   Clear
3:47 AM 37.4 °F 31.4 °F 32.0 °F 81% 30.20 in 10.0 mi South 8.1 mph - N/A   Scattered Clouds
4:07 AM 37.4 °F 32.1 °F 32.0 °F 81% 30.19 in 10.0 mi SW 6.9 mph - N/A   Scattered Clouds
4:27 AM 37.4 °F 32.1 °F 32.0 °F 81% 30.18 in 10.0 mi SW 6.9 mph - N/A   Overcast
4:47 AM 37.4 °F 30.3 °F 32.0 °F 81% 30.18 in 10.0 mi SW 10.4 mph - N/A   Mostly Cloudy
5:07 AM 35.6 °F 32.8 °F 32.0 °F 87% 30.18 in 0.5 mi SW 3.5 mph - N/A   Haze
5:27 AM 37.4 °F 29.8 °F 32.0 °F 81% 30.18 in 10.0 mi SW 11.5 mph 18.4 mph N/A   Scattered Clouds
5:47 AM 37.4 °F 29.3 °F 32.0 °F 81% 30.18 in 10.0 mi SW 12.7 mph 17.3 mph N/A   Clear
6:07 AM 37.4 °F 30.8 °F 32.0 °F 81% 30.18 in 10.0 mi SW 9.2 mph 17.3 mph N/A   Scattered Clouds
6:24 AM 37.4 °F 30.3 °F 32.0 °F 81% 30.17 in 10.0 mi SW 10.4 mph 19.6 mph N/A   Mostly Cloudy
7:07 AM 37.4 °F 31.4 °F 30.2 °F 75% 30.16 in 10.0 mi SW 8.1 mph - N/A   Scattered Clouds
7:27 AM 37.4 °F 30.8 °F 30.2 °F 75% 30.16 in 10.0 mi SSW 9.2 mph 17.3 mph N/A   Clear
7:47 AM 37.4 °F 31.4 °F 30.2 °F 75% 30.15 in 10.0 mi SSW 8.1 mph - N/A   Clear
8:07 AM 37.4 °F 32.1 °F 30.2 °F 75% 30.15 in 10.0 mi South 6.9 mph - N/A   Clear
8:27 AM 37.4 °F 30.3 °F 28.4 °F 70% 30.15 in 10.0 mi SSW 10.4 mph 17.3 mph N/A   Clear
8:47 AM 37.4 °F 28.5 °F 30.2 °F 75% 30.15 in 10.0 mi South 15.0 mph - N/A   Clear
9:07 AM 37.4 °F 31.4 °F 30.2 °F 75% 30.15 in 10.0 mi SSE 8.1 mph 11.5 mph N/A   Clear
9:27 AM 41.0 °F 34.3 °F 32.0 °F 70% 30.15 in 10.0 mi SSE 11.5 mph - 0.01 in   Clear
9:47 AM 37.4 °F 32.8 °F 28.4 °F 70% 30.15 in 10.0 mi SSW 5.8 mph - 0.04 in   Scattered Clouds
10:07 AM 41.0 °F 33.1 °F 32.0 °F 70% 30.14 in 10.0 mi SSE 15.0 mph - N/A   Mostly Cloudy
10:47 AM 44.6 °F 37.4 °F 32.0 °F 61% 30.14 in 10.0 mi SSE 16.1 mph 19.6 mph 0.01 in   Scattered Clouds
11:07 AM 44.6 °F 41.4 °F 30.2 °F 57% 30.13 in 10.0 mi SSW 5.8 mph - N/A   Clear
11:27 AM 44.6 °F 39.2 °F 32.0 °F 61% 30.12 in 10.0 mi SSE 10.4 mph 16.1 mph N/A   Mostly Cloudy
11:47 AM 44.6 °F 36.9 °F 28.4 °F 53% 30.12 in 10.0 mi SSE 18.4 mph 25.3 mph N/A   Scattered Clouds
12:07 PM 44.6 °F 36.9 °F 30.2 °F 57% 30.11 in 10.0 mi South 18.4 mph 24.2 mph N/A   Scattered Clouds
12:27 PM 44.6 °F 36.4 °F 30.2 °F 57% 30.11 in 10.0 mi South 20.7 mph 24.2 mph N/A   Scattered Clouds
12:47 PM 44.6 °F 36.1 °F 30.2 °F 57% 30.12 in 10.0 mi South 21.9 mph 25.3 mph N/A   Mostly Cloudy
1:07 PM 44.6 °F 35.9 °F 30.2 °F 57% 30.10 in 10.0 mi SSE 23.0 mph 27.6 mph N/A   Mostly Cloudy
2:07 PM 46.4 °F 39.2 °F 26.6 °F 46% 30.10 in 10.0 mi SSE 18.4 mph 27.6 mph N/A   Clear
2:27 PM 44.6 °F 35.1 °F 26.6 °F 49% 30.09 in 10.0 mi South 27.6 mph 32.2 mph N/A   Mostly Cloudy
2:47 PM 44.6 °F 36.4 °F 26.6 °F 49% 30.07 in 10.0 mi SSE 20.7 mph 29.9 mph N/A   Mostly Cloudy
3:07 PM 44.6 °F 36.9 °F 24.8 °F 46% 30.08 in 10.0 mi SSE 18.4 mph 33.4 mph N/A   Scattered Clouds
3:47 PM 44.6 °F 38.1 °F 26.6 °F 49% 30.08 in 10.0 mi South 13.8 mph 24.2 mph N/A   Scattered Clouds
4:07 PM 44.6 °F 38.4 °F 26.6 °F 49% 30.08 in 10.0 mi SSE 12.7 mph 21.9 mph N/A   Mostly Cloudy
4:27 PM 44.6 °F 38.1 °F 28.4 °F 53% 30.07 in 10.0 mi SSE 13.8 mph 19.6 mph N/A   Mostly Cloudy
4:47 PM 44.6 °F 36.4 °F 26.6 °F 49% 30.06 in 10.0 mi South 20.7 mph 25.3 mph N/A   Scattered Clouds
5:07 PM 44.6 °F 36.6 °F 26.6 °F 49% 30.05 in 10.0 mi SSE 19.6 mph 29.9 mph N/A   Clear
5:27 PM 44.6 °F 36.9 °F 26.6 °F 49% 30.04 in 10.0 mi SSE 18.4 mph 28.8 mph N/A   Clear
5:47 PM 44.6 °F 35.9 °F 28.4 °F 53% 30.05 in 10.0 mi South 23.0 mph - N/A   Scattered Clouds
6:07 PM 42.8 °F 34.8 °F 26.6 °F 53% 30.04 in 10.0 mi South 17.3 mph 28.8 mph N/A   Mostly Cloudy
6:27 PM 41.0 °F 31.4 °F 26.6 °F 57% 30.05 in 10.0 mi South 21.9 mph 26.5 mph N/A   Mostly Cloudy
6:47 PM 41.0 °F 31.1 °F 26.6 °F 57% 30.03 in 10.0 mi SSE 23.0 mph 31.1 mph N/A   Mostly Cloudy
7:07 PM 41.0 °F 31.4 °F 28.4 °F 61% 30.03 in 10.0 mi SSE 21.9 mph 33.4 mph N/A   Clear
7:27 PM 41.0 °F 31.1 °F 28.4 °F 61% 30.03 in 10.0 mi SSE 23.0 mph 32.2 mph N/A   Clear
7:47 PM 41.0 °F 30.0 °F 28.4 °F 61% 30.04 in 10.0 mi South 28.8 mph 32.2 mph N/A   Mostly Cloudy
8:07 PM 41.0 °F 30.9 °F 28.4 °F 61% 30.06 in 10.0 mi South 24.2 mph 32.2 mph N/A   Overcast
8:27 PM 39.2 °F 28.7 °F 28.4 °F 65% 30.05 in 10.0 mi South 23.0 mph 31.1 mph N/A   Mostly Cloudy
8:47 PM 37.4 °F 26.6 °F 28.4 °F 70% 30.04 in 10.0 mi South 21.9 mph - N/A   Scattered Clouds
9:07 PM 37.4 °F 24.8 °F 28.4 °F 70% 30.03 in 10.0 mi SSE 31.1 mph 36.8 mph N/A   Clear
9:27 PM 37.4 °F 26.6 °F 28.4 °F 70% 30.04 in 10.0 mi South 21.9 mph 35.7 mph N/A   Scattered Clouds
9:47 PM 37.4 °F 27.5 °F 28.4 °F 70% 30.03 in 10.0 mi South 18.4 mph - N/A   Scattered Clouds
10:07 PM 37.4 °F 27.2 °F 28.4 °F 70% 30.02 in 10.0 mi SSE 19.6 mph 29.9 mph N/A   Mostly Cloudy
10:27 PM 37.4 °F 27.5 °F 28.4 °F 70% 30.00 in 10.0 mi South 18.4 mph - N/A   Mostly Cloudy
10:47 PM 37.4 °F 26.9 °F 28.4 °F 70% 29.99 in 10.0 mi SSE 20.7 mph 32.2 mph N/A   Scattered Clouds
11:07 PM 37.4 °F 25.9 °F 28.4 °F 70% 29.98 in 10.0 mi South 25.3 mph 32.2 mph N/A   Clear
11:27 PM 37.4 °F 26.4 °F 28.4 °F 70% 29.98 in 10.0 mi SSE 23.0 mph 34.5 mph N/A   Clear
11:47 PM 37.4 °F 24.2 °F 28.4 °F 70% 29.97 in 10.0 mi South 34.5 mph 39.1 mph N/A   Scattered Clouds